#timestamp,LO_Frequency,Hit 
1504594815.2,286047002.1,N
1504594835.0,286047000.4,N
1504594835.9,286047000.4,N
1504594855.7,286046998.6,N
1504594875.6,286046998.6,N
1504594895.4,286046999.5,N
1504594915.2,286046996.7,N
1504594935.1,286046995.0,N
1504594936.0,286046995.0,N
1504594955.8,286046997.1,N
1504594975.6,286046997.3,N
1504594995.5,286046993.6,N
1504595015.3,286046994.2,N
1504595035.1,286046994.3,N
1504595055.9,286046993.7,N
1504595075.7,286046998.0,N
1504595095.5,286046998.9,N
1504595115.4,286046995.2,N
1504595135.2,286046996.3,N
1504595155.0,286046993.6,N
1504595155.9,286046993.6,N
1504595175.7,286046991.4,N
1504595195.6,286046994.1,N
1504595215.4,286046992.3,N
1504595235.2,286046994.6,N
1504595255.1,286046992.7,N
1504595256.0,286046992.7,N
1504595275.8,286046994.8,N
1504595295.6,286046995.3,N
1504595315.5,286046993.1,N
1504595335.3,286046987.7,P
1504595355.1,286046993.3,N
1504595375.9,286046999.1,N
1504595395.7,286046994.9,N
1504595415.5,286046997.4,N
1504595435.4,286046997.2,N
1504595455.2,286046996.6,N
1504595475.0,286046996.8,N
1504595475.9,286046996.8,N
1504595495.8,286046994.3,N
1504595515.6,286046990.4,P
1504595535.4,286046996.1,N
1504595555.3,286046997.0,N
1504595575.1,286046997.0,N
1504595595.8,286047003.5,N
1504595615.7,286047004.1,N
1504595635.5,286046998.4,N
1504595655.3,286046996.8,N
1504595675.2,286046993.0,N
1504595695.9,286046993.1,N
1504595715.7,286046991.7,N
1504595735.6,286046990.9,N
1504595755.4,286046988.8,N
1504595775.2,286046991.6,N
1504595795.0,286046987.6,N
1504595795.9,286046987.6,N
1504595815.8,286046989.9,N
1504595835.6,286046988.6,N
1504595855.4,286046991.3,N
1504595875.3,286046994.7,N
1504595895.1,286046992.2,N
1504595915.8,286046992.1,N
1504595935.7,286046991.8,N
1504595955.5,286046991.8,N
1504595975.3,286046988.6,N
1504595995.2,286046992.9,N
1504596015.9,286046993.1,N
1504596035.7,286046989.3,N
1504596055.6,286046989.3,N
1504596075.4,286046988.6,N
1504596095.2,286046993.0,N
1504596115.0,286046991.9,N
1504596116.0,286046991.9,N
1504596135.8,286046992.9,N
1504596155.6,286046989.5,N
1504596175.5,286046987.0,P
1504596195.3,286046998.1,N
1504596215.1,286046997.3,N
1504596235.8,286046997.5,N
1504596255.7,286046996.2,N
1504596275.5,286046996.6,N
1504596295.3,286047002.0,N
1504596315.2,286047004.4,N
1504596335.9,286047001.6,N
1504596355.7,286047005.0,N
1504596375.6,286047007.1,N
1504596395.4,286047006.1,N
1504596415.2,286047005.5,N
1504596435.1,286047003.7,N
1504596436.0,286047003.7,N
1504596455.8,286047001.4,N
1504596475.6,286047005.6,N
1504596495.5,286047003.3,N
1504596515.3,286047005.9,N
1504596535.1,286047003.0,N
1504596555.8,286047003.1,N
1504596575.7,286047003.4,N
1504596595.5,286047006.0,N
1504596615.3,286047005.5,N
1504596635.2,286047003.0,N
1504596655.9,286047001.5,N
1504596675.7,286046999.3,N
1504596695.6,286046998.3,N
1504596715.4,286047001.7,N
1504596735.2,286046998.4,N
1504596755.1,286046994.9,N
1504596756.0,286046994.9,N
1504596775.8,286046997.1,N
1504596795.6,286046996.8,N
1504596815.5,286046995.8,N
1504596835.3,286046995.2,N
1504596855.1,286046995.2,N
1504596875.9,286046995.4,N
1504596895.7,286046995.0,N
1504596915.5,286046997.6,N
1504596935.3,286046995.8,N
1504596955.2,286046995.1,N
1504596975.0,286046993.4,N
1504596975.9,286046993.4,N
1504596995.8,286046999.2,N
1504597015.6,286047000.7,N
1504597035.4,286047002.4,N
1504597055.3,286047001.2,N
1504597075.1,286046995.6,N
1504597076.0,286046995.6,N
1504597095.8,286046993.3,N
1504597115.7,286046996.5,N
1504597135.5,286047000.3,N
1504597155.3,286047000.8,N
1504597175.1,286046998.5,N
1504597195.9,286046999.2,N
1504597215.7,286046996.8,N
1504597235.5,286046998.7,N
1504597255.4,286047000.7,N
1504597275.2,286047002.7,N
1504597295.0,286047000.0,N
1504597295.9,286047000.0,N
1504597315.8,286047001.2,N
1504597335.6,286047005.6,N
1504597355.4,286047004.4,N
1504597375.3,286046999.9,N
1504597395.1,286047002.6,N
1504597415.8,286047002.0,N
1504597435.7,286047000.9,N
1504597455.5,286046998.1,N
1504597475.3,286046996.2,N
1504597495.2,286046994.9,N
1504597515.9,286046996.0,N
1504597535.7,286046994.7,N
1504597555.6,286046996.8,N
1504597575.4,286046997.2,N
1504597595.2,286046993.5,N
1504597615.1,286046996.3,N
1504597616.0,286046996.3,N
1504597635.8,286046993.2,N
1504597655.6,286046992.3,N
1504597675.5,286046992.2,N
1504597695.3,286046994.3,N
1504597715.1,286046993.7,N
1504597735.9,286046993.6,N
1504597755.7,286046994.1,N
1504597775.5,286046995.3,N
1504597795.3,286046996.2,N
1504597815.2,286046993.7,N
1504597835.0,286046995.8,N
1504597835.9,286046995.8,N
1504597855.7,286046996.3,N
1504597875.6,286046993.6,N
1504597895.4,286046996.1,N
1504597915.2,286046995.6,N
1504597935.1,286046997.6,N
1504597936.0,286046997.6,N
1504597955.8,286046994.5,N
1504597975.8,286046993.0,P
1504597995.6,286046999.5,N
1504598015.5,286046994.9,N
1504598035.3,286046994.9,N
1504598055.1,286047000.0,N
1504598075.9,286047001.2,N
1504598095.7,286046997.0,N
1504598115.5,286046997.9,N
1504598135.4,286046998.8,N
1504598155.2,286047002.7,N
1504598175.0,286047000.4,N
1504598175.9,286047000.4,N
1504598195.8,286047000.2,N
1504598215.6,286046999.3,N
1504598235.4,286046993.7,N
1504598255.3,286046993.4,N
1504598275.1,286046995.4,N
1504598276.0,286046995.4,N
1504598295.8,286046996.2,N
1504598315.7,286046996.2,N
1504598335.5,286046993.3,N
1504598355.3,286046992.1,N
1504598375.1,286046994.2,N
1504598395.9,286046997.0,N
